This is the latest recevied weather packets stored in our database for station/object N6DZK. If no packets are shown the sender has not sent any weather packets the latest 10 day(s).
| Time | Temp. | Humidity | Pressure | Rain* | Wind** | Luminosity | Snow |
|---|---|---|---|---|---|---|---|
| 1778036440 | 15° C | 77% | 1016.4 hPa | 0 mm | - | 2 W/m² | - |
| 1778036137 | 15.56° C | 77% | 1016.2 hPa | 0 mm | - | 4 W/m² | - |
| 1778035832 | 15.56° C | 76% | 1016.2 hPa | 0 mm | - | 6 W/m² | - |
| 1778035530 | 15.56° C | 76% | 1016 hPa | 0 mm | - | 10 W/m² | - |
| 1778035226 | 15.56° C | 76% | 1016.1 hPa | 0 mm | - | 13 W/m² | - |
| 1778034922 | 15.56° C | 75% | 1016 hPa | 0 mm | - | 16 W/m² | - |
| 1778034620 | 16.11° C | 75% | 1016.1 hPa | 0 mm | - | 20 W/m² | - |
| 1778034317 | 16.11° C | 74% | 1015.8 hPa | 0 mm | - | 25 W/m² | - |
| 1778034015 | 16.11° C | 74% | 1016.1 hPa | 0 mm | - | 31 W/m² | - |
| 1778033712 | 16.11° C | 74% | 1016 hPa | 0 mm | - | 34 W/m² | - |
| 1778033409 | 16.11° C | 73% | 1016.1 hPa | 0 mm | - | 35 W/m² | - |
| 1778033107 | 16.11° C | 74% | 1016 hPa | 0 mm | - | 35 W/m² | - |
| 1778032804 | 16.11° C | 74% | 1016.2 hPa | 0 mm | - | 38 W/m² | - |
| 1778032501 | 16.11° C | 73% | 1016.1 hPa | 0 mm | - | 41 W/m² | - |
| 1778032198 | 16.11° C | 72% | 1016.2 hPa | 0 mm | - | 47 W/m² | - |
| 1778031895 | 16.11° C | 73% | 1016 hPa | 0 mm | - | 57 W/m² | - |
| 1778031591 | 16.11° C | 73% | 1016.1 hPa | 0 mm | - | 63 W/m² | - |
| 1778031289 | 16.67° C | 73% | 1016 hPa | 0 mm | - | 61 W/m² | - |
| 1778030985 | 16.67° C | 72% | 1016.2 hPa | 0 mm | - | 58 W/m² | - |
| 1778030682 | 16.67° C | 73% | 1016.1 hPa | 0 mm | - | 61 W/m² | - |
| 1778030379 | 16.67° C | 72% | 1016.1 hPa | 0 mm | - | 67 W/m² | - |
| 1778030076 | 16.67° C | 72% | 1016.1 hPa | 0 mm | - | 83 W/m² | - |
| 1778029773 | 16.67° C | 72% | 1016.2 hPa | 0 mm | - | 90 W/m² | - |
| 1778029472 | 16.67° C | 72% | 1016.1 hPa | 0 mm | - | 93 W/m² | - |
| 1778029167 | 16.67° C | 72% | 1016.2 hPa | 0 mm | - | 95 W/m² | - |
* Rain latest hour (hover to see other rain measurements)
** Current wind speed in m/s (hover to see current wind gust speed)